Timeline UpdatesTrip UpdatesNews PostsPvt PostsTravel TipsAdmin PostsConv PostsFollowed PostsChat RequestsBlog PostsPNR Posts

Disclaimer
Search
 
 
Thu Apr 17, 2014 06:21:47 ISTHomeTrainsΣChainsAtlasPNRForumGalleryNewsFAQTripsMembersLoginFeedback
No Recent News for this Train
Other Trains in the News **new
Latest...
Will arrive MAQ at 11:05 w.e.f 1st july 2012
Sat Jun 23, 2012 (11:41PM)
⇐ Return Journey: Train# 16348

16347/Trivandrum Mangalore Express

Feb 28 2014 (1:41PM)
Change Departure Station:
Change Arrival Station:
Post a Train Travel TipPost a Train Travel Tip **new
Post a Comment/Question/Picture/VideoPost a Comment/Question/Picture/Video
Pantry/Catering
✕ NO Pantry Car
✓ Catering Avbl
RSA - Rake Sharing
RSA with 12619/12620 Matsyagandha Express
Rake/Coach Composition
A1, B1-B3, S1-S11. (From PNR Blogs); To be augmented with an additional Sleeper class With effect from 15.7.11 permanently.
Loco
ED WDM-3D which brings 16650 parasuram takes this train back
News    PNR    Forum    Time-Table    Availability    Fare Chart    Map    Arr/Dep History    Trips    Gallery    ΣChains    X/O    Timeline    
Travel Time: 14h 15m    48 halts    Distance: 632 km    Avg Speed: 44 km/hr
Type: Mail/Express
Zone: SR/Southern
Departs @ 20:40 (Avg 33m late)
Platform# 2
SMTWTFS
Trivandrum Central/TVC 
Arrives @ 10:55 +1 night (Avg 38m late)
Platform# 1
SMTWTFS
Mangalore Central/MAQ 

48 halts. 120 intermediate Stations between Trivandrum Central and Mangalore Central

Show ALL intermediate Stations  Show Old Time-Table

#CodeStation NameX/OArrivesAvgDepartsAvgHaltPFDay#KmSpeedElevZoneAddress
1TVC»Trivandrum Central (5)»  -20:40+33210.03512mSRPh: 0471-2321622, Kerala
2TVPThiruvananthapuram Pettah (2)X  20:44+3320:45+331m--12.47518mSRTrivandrum Ph: 04712470181, Kerala
3CRYChirayinkeezhu (2)  21:06+3621:07+361m--128.74619mSRChirayinkeezhu, Kerala
4KVUKadakavur (3)X  21:11+3621:12+361m--131.84620mSRKadakkavoor, Kerala
5VAKVarkala Sivagiri (3)  21:24+3521:25+361m--141.06152mSREdava Kappil Road, Kerala
6PVUParavur (3)  21:36+3821:37+381m--152.25318mSRParavoor, Kerala
7MYYMayyanad (2)  21:41+3921:42+391m--155.74121mSRMayyanad, Kerala
8QLNKollam Junction (6)  21:55+3622:00+365m2164.67316mSRKollam 0474-2746194, Kerala
9STKTSasthamkotta (2)X22:16+4522:17+451m--184.1650mSRKollam Dist, Kerala
10KPYKarunagappalli (2)  22:24+4422:25+441m1191.74112mSRKollam Dist, Kerala
11KYJKayamkulam Junction (5)  22:45+4122:47+412m--1105.45811mSRAlappuzha Ph;0479-2442042, Kerala
12MVLKMavelikara (3)  22:55+4422:57+452m21113.16313mSRMavelikkara Ph: 0479-2302249, Kerala
13CNGRChengannur (3)  23:09+4423:10+471m--1125.6606mSRPh: 0479-2452340, Kerala
14TRVLTiruvalla (2)  23:19+4923:20+511m--1134.75227mSRPh: 0469-2601314, Kerala
15CGYChanganassery (3)X  23:29+5223:30+531m--1142.64711mSRPh: 0481- 2420108, Kerala
16KTYMKottayam (3)  23:53+5123:58+515m--1160.46015mSRTel: 0481 2563535, Kerala
17PVRDPiravom Road  00:29+5900:30+1:001m--2191.63112mSRKottayam, Kerala
18ERNErnakulam Town (North) (2)X  01:25+4701:30+485m12220.4509mSRTel: 0484 2395198, Kerala
19AWYAluva (3)X  01:50+4701:53+463m32237.26112mSRPh: 0484-2624141, Kerala
20AFKAngamaly for Kalady (3)X  02:02+4802:03+491m--2246.45716mSRPhone: 0484-2452340, Kerala
21CKIChalakkudy (3)  02:19+4802:20+491m22261.6439mSRPh: 0480- 2701368, Kerala
22IJKIrinjalakkuda (2)X  02:29+4802:30+491m--2268.14418mSRKalletumkara, Kerala
23TCRThrissur (4)X  03:02+4003:05+413m22291.8706mSRThrissur Tel: 0487 2423150, Kerala
24WKIWadakkanchery (2)X  03:19+4503:20+451m22308.22540mSRWadackanchery, Kerala
25SRRShoranur Junction (7)X  04:00+3604:10+4410m--2324.85026mSRShoranur ph.no 0466-2222913, Kerala
26PTBPattambi (2)  04:24+4504:25+451m--2336.35821mSRPattambi, Kerala
27KTUKuttippuram (2)  04:44+4404:45+461m--2354.85617mSRKuttippuram, Kerala
28TIRTirur (3)  05:01+4705:03+472m12369.8609mSRTel: 0494 2422240, Kerala
29TATanur (3)  05:11+5005:12+501m--2377.88111mSRMalappuram, Kerala
30PGIParappangadi (2)  05:18+5205:20+522m--2385.910019mSRParappanangadi, Kerala
31VLIVallikunnu (2)X  05:23+5005:25+492m--2390.93813mSRVallikkunnu, Kerala
32FKFerok (2)  05:41+5005:43+492m--2401.12719mSRFeroke, Kerala
33CLTKozhikode Main (4)X  06:05+4506:10+465m32411.16611mSRCalicut Tel: 0495 2701234, Kerala
34QLDKoyilandy (3)  06:32+4606:33+471m--2435.47711mSRQuilandi, Kerala
35BDJVadakara (2)  06:50+4906:52+492m22457.39711mSRCalicut / Station Ph No : 0496-2524254, Kerala
36MAHEMahe (2)  07:00+5407:02+532m--2470.26916mSRMahe, Puducherry
37TLYThalassery (2)  07:10+5607:12+562m--2479.4339mSRKannur, Kerala
38CANKannur Main (3)  07:50+3907:55+465m12500.16714mSRKannur Tel: 0497 2705555, Kerala
39KPQKannapuram (2)  08:08+4908:10+482m--2514.6569mSRKannur District, Kerala
40PAZPayangadiX  08:18+4908:20+482m--2522.18712mSRKannur District, Kerala
41PAYPayyanur (3)X  08:28+5208:30+522m--2533.81240mSRKannur District, Kerala
42TKQTrikkarippur  08:33+5908:35+582m--2540.06413mSRKasargod district, Kerala
43CHVCharvattur (3)X  08:43+5908:45+592m--2548.55314mSRKasaragod district, Kerala
44NLENileshwar (2)  08:51+1:0308:53+1:032m--2553.85612mSRNileswaram, Kerala
45KZEKanhangad (3)  09:03+1:0409:05+1:032m--2563.08815mSRKanhangad, Kerala
46BFRBekal Fort (2)X  09:11+1:0409:13+1:032m--2571.85811mSRPallikere, Kerala
47KQKKottikkulam (2)  09:18+1:0409:20+1:032m22576.74425mSRBekal, Kerala
48KGQKasaragod (3)X  09:33+1:0109:35+1:012m22586.210518mSRTel: 04994 220800, Kerala
49KMQKumbala (2)  09:42+5809:44+572m--2598.42823mSRKumbla, Kerala
50MAQ•Mangalore Central (3)•  10:55+38-12631.9-14mSRMangalore 575001, Karnataka
Scroll to Top
Scroll to Bottom